Vilnius, Baltarusija

11:33 PM +03 on vasario 23, 2018 (GMT +0300)
Vilnius International | | Change Station

Elev 512 ft 54.63 °N, 25.28 °E | Updated 13 minutes ago

Debesuota su pragiedruliais
Debesuota su pragiedruliais
5 °F
Feels Like -2 °F
N
4
Vėjas nepastovus Vėjas from Rytai

Šiandien
High -- | Low -- °F
--% Chance of Precip.
Yesterday
High -- | Low -- °F
Precip. -- in
Slėgis 30.21 in
Matomumas 3.1 mylios
Debesys
Šaltas vėjas -2 °F
Rasos taškas 1 °F
Drėgmė 85%
Krituliai 0.00 in
Sniego dangos storis Not available.
8:19 AM 6:40 PM
Priešpilnis, 56% visible
METAR EYVI 232020Z 10003KT 5000 BR NSC M15/M17 Q1023 R01/1///95 NOSIG
Slėgis 30.21 in
Matomumas 3.1 mylios
Debesys
Šaltas vėjas -2 °F
Rasos taškas 1 °F
Drėgmė 85%
Krituliai 0.00 in
Sniego dangos storis Not available.
8:19 AM 6:40 PM
Priešpilnis, 56% visible
METAR EYVI 232020Z 10003KT 5000 BR NSC M15/M17 Q1023 R01/1///95 NOSIG

Get Severe Weather Alerts

Thanks for signing up!

Be on the lookout for a verification email in your inbox.

You'll start receiving the daily forecast at 6 AM.

×

10-Day Weather Forecast

×

Almanac

Astronomija

Feb. 23, 2018 Rise Set
Vietos laikas
Dienos šviesa
Jūrinė diena
Astronominė diena
Mėnulis
Matomos šviesos trukmė
Dienos ilgis
Tomorrow will be .
, % of the Moon is Illuminated

Šiandienos maksimumai

Country Highs Country Lows

Community

WunderPhotos

Category 6

Welcome to Category 6. This is the collective home for Weather Underground's featured writeups by Dr. Jeff Masters (right), Bob Henson (left), Chris Burt, and other regular contributors.

Nearby

Air Quality

  Air Quality AQ Index Pollutant
Not available.

Sniego danga

Station Depth Elevation

Earthquake Activity

Miestas Distance Mag. Time & Date
Minimum magnitude displayed is 2.5.

Coastal Water Temperatures

Vieta Temperatūra

Stations

Nearby Weather Stations

Station Location Temp Šaltas vėjas Rasos taškas Drėgmė Vėjas Precip. Elev Duomenys papildyti Type